Regional Weather Roundup
Issued by NWS Cleveland, OH

Home | Current Version | Previous Version | Text Only | Print | Product List | Glossary Off
Versions: 1 2 3 4 5 6 7 8 9 10 11 12 13 14 15 16 17 18 19 20 21 22 23 24 25 26 27 28 29 30 31 32 33 34 35 36 37 38 39 40 41 42 43 44 45 46 47 48 49 50

000
ASUS41 KCLE 152102
RWRCLE
OHIO REGIONAL WEATHER ROUNDUP
NATIONAL WEATHER SERVICE CLEVELAND, OH
400 PM EST FRI DEC 15 2017

NOTE: "FAIR" INDICATES FEW OR NO CLOUDS BELOW 12,000 FEET WITH NO
SIGNIFICANT WEATHER AND/OR OBSTRUCTIONS TO VISIBILITY.

OHZ001>008-015>018-024>027-034-035-043-044-152200-
   NORTHWEST OHIO

CITY           SKY/WX    TMP DP  RH WIND       PRES   REMARKS
DEFIANCE       CLOUDY    27  15  61 W12G18    29.90R WCI  17
FINDLAY        CLOUDY    28  18  66 W20G28    29.89R WCI  15
TOLEDO EXPRESS CLOUDY    26  21  81 W16       29.87R WCI  14
TOLEDO EXEC    CLOUDY    27  20  75 W17G24    29.88R WCI  14
LIMA           CLOUDY    27  21  78 W17       29.91R WCI  14
$$

OHZ009>014-019>023-028>033-038-089-152200-
   NORTHEAST OHIO

CITY           SKY/WX    TMP DP  RH WIND       PRES   REMARKS
CLE-HOPKINS    LGT SNOW  26  21  81 SW18G25   29.88S BLWGSNOWWCI  13
CLE-LAKEFRONT  LGT SNOW  26  20  77 SW18G28   29.86R WCI  13
CUY CO. ARPT   LGT SNOW  27  21  80 SW17G25   29.85R WCI  14
LORAIN-ELYRIA  CLOUDY    26  17  68 W22G28    29.88R WCI  12
ASHTABULA      LGT SNOW  24  18  77 SW16      29.82S WCI  11
AKRON-CANTON   FLURRIES  26  16  65 SW15      29.85S WCI  14
WOOSTER        LGT SNOW  25  20  81 SW13      29.87R WCI  14
MANSFIELD      LGT SNOW  25  21  85 W15G22    29.87R FOG     WCI  13
YOUNGSTOWN     FLURRIES  25  15  66 SW17G24   29.83S WCI  12
$$

OHZ042-051>053-060>062-070>072-077>081-152200-
  SOUTHWEST OHIO

CITY           SKY/WX    TMP DP  RH WIND       PRES   REMARKS
CINC-COVINGTON CLOUDY    32  22  66 W10       30.00R WCI  24
CINC-LUNKEN    CLOUDY    34  21  59 W15       30.03R WCI  24
HAMILTON       CLOUDY    32  22  66 W9        30.02R WCI  24
DAYTON         CLOUDY    29  21  72 W23       29.96R WCI  15
WRIGHT-PAT AFB CLOUDY    30  20  66 W15G23    29.96R WCI  19
DAYTON GENERAL CLOUDY    30  19  63 SW15G23   29.97R WCI  19
WILMINGTON     CLOUDY    30  21  69 W13G24    29.96R WCI  20
$$

OHZ036-037-039>041-045>050-054>059-063>069-073>076-082>088-152200-
  CENTRAL AND SOUTHEAST OHIO

CITY           SKY/WX    TMP DP  RH WIND       PRES   REMARKS
COLUMBUS       CLOUDY    31  20  63 W18G26    29.94R WCI  19
OSU AIRPORT    CLOUDY    29  21  72 W15G23    29.94R WCI  18
BOLTON FIELD   CLOUDY    28  19  69 W17G23    29.95R WCI  16
RICKENBACK AFB CLOUDY    30  19  63 W14G21    29.95R WCI  20
NEWARK         CLOUDY    30  20  66 SW15G22   29.92S WCI  19
MARION         NOT AVBL
LANCASTER      CLOUDY    30  19  63 SW10      29.95R WCI  21
ZANESVILLE     CLOUDY    30  17  58 SW10G21   29.93S WCI  21
NEW PHILLY     NOT AVBL
$$




USA.gov is the U.S. government's official web portal to all federal, state and local government web resources and services.